TimeEDT,TemperatureF,Dew PointF,Humidity,Sea Level PressureIn,VisibilityMPH,Wind Direction,Wind SpeedMPH,Gust SpeedMPH,PrecipitationIn,Events,Conditions,WindDirDegrees,DateUTC
12:35 AM,69.8,60.8,73,30.14,10.0,NNE,5.8,-,N/A,,Scattered Clouds,30,2011-10-05 04:35:00
12:55 AM,69.8,60.8,73,30.13,10.0,Calm,Calm,-,N/A,,Mostly Cloudy,0,2011-10-05 04:55:00
1:15 AM,69.8,60.8,73,30.13,10.0,NNE,3.5,-,N/A,,Mostly Cloudy,30,2011-10-05 05:15:00
1:35 AM,69.8,60.8,73,30.13,10.0,NNE,5.8,-,N/A,,Overcast,20,2011-10-05 05:35:00
2:15 AM,69.8,60.8,73,30.12,10.0,NNE,4.6,-,N/A,,Mostly Cloudy,20,2011-10-05 06:15:00
2:35 AM,69.8,60.8,73,30.11,10.0,Calm,Calm,-,N/A,,Mostly Cloudy,0,2011-10-05 06:35:00
2:55 AM,69.8,60.8,73,30.11,10.0,Calm,Calm,-,N/A,,Mostly Cloudy,0,2011-10-05 06:55:00
3:15 AM,68.0,60.8,78,30.10,10.0,North,5.8,-,N/A,,Mostly Cloudy,10,2011-10-05 07:15:00
3:35 AM,68.0,60.8,78,30.10,10.0,NNE,4.6,-,N/A,,Mostly Cloudy,20,2011-10-05 07:35:00
3:55 AM,68.0,60.8,78,30.10,10.0,NNE,6.9,-,N/A,,Mostly Cloudy,20,2011-10-05 07:55:00
4:35 AM,66.2,60.8,83,30.10,10.0,Calm,Calm,-,N/A,,Mostly Cloudy,0,2011-10-05 08:35:00
4:55 AM,66.2,60.8,83,30.10,9.0,North,4.6,-,N/A,,Mostly Cloudy,10,2011-10-05 08:55:00
5:15 AM,68.0,60.8,78,30.10,10.0,Calm,Calm,-,N/A,,Scattered Clouds,0,2011-10-05 09:15:00
5:35 AM,66.2,60.8,83,30.10,10.0,Calm,Calm,-,N/A,,Mostly Cloudy,0,2011-10-05 09:35:00
5:55 AM,66.2,60.8,83,30.10,9.0,North,5.8,-,N/A,,Mostly Cloudy,10,2011-10-05 09:55:00
6:15 AM,66.2,60.8,83,30.11,10.0,Calm,Calm,-,N/A,,Mostly Cloudy,0,2011-10-05 10:15:00
6:35 AM,64.4,59.0,83,30.11,10.0,Calm,Calm,-,N/A,,Scattered Clouds,0,2011-10-05 10:35:00
6:55 AM,62.6,59.0,88,30.11,10.0,Calm,Calm,-,N/A,,Scattered Clouds,0,2011-10-05 10:55:00
7:15 AM,64.4,60.8,88,30.12,10.0,Calm,Calm,-,N/A,,Scattered Clouds,0,2011-10-05 11:15:00
7:30 AM,64.4,62.6,94,30.12,10.0,Calm,Calm,-,N/A,,Partly Cloudy,0,2011-10-05 11:30:00
7:51 AM,64.4,62.6,94,30.12,10.0,Calm,Calm,-,N/A,,Partly Cloudy,0,2011-10-05 11:51:00
8:52 AM,71.6,62.6,73,30.14,12.0,North,4.6,-,N/A,,Partly Cloudy,10,2011-10-05 12:52:00
9:54 AM,77.0,60.8,57,30.14,15.0,North,5.8,-,N/A,,Partly Cloudy,10,2011-10-05 13:54:00
11:53 AM,80.6,62.6,54,30.13,15.0,NE,13.8,-,N/A,,Scattered Clouds,40,2011-10-05 15:53:00
12:53 PM,84.2,62.6,48,30.12,15.0,ENE,11.5,18.4,N/A,,Scattered Clouds,60,2011-10-05 16:53:00
1:54 PM,84.2,62.6,48,30.09,15.0,ENE,9.2,17.3,N/A,,Mostly Cloudy,70,2011-10-05 17:54:00
3:15 PM,86.0,57.2,37,30.07,10.0,ENE,12.7,-,N/A,,Partly Cloudy,60,2011-10-05 19:15:00
3:35 PM,86.0,57.2,37,30.07,10.0,ENE,15.0,21.9,N/A,,Clear,60,2011-10-05 19:35:00
3:55 PM,84.2,57.2,40,30.06,10.0,NNE,13.8,19.6,N/A,,Clear,30,2011-10-05 19:55:00
4:15 PM,84.2,57.2,40,30.06,10.0,NE,12.7,17.3,N/A,,Clear,40,2011-10-05 20:15:00
4:35 PM,84.2,57.2,40,30.06,10.0,NE,13.8,19.6,N/A,,Clear,50,2011-10-05 20:35:00
4:55 PM,84.2,55.4,37,30.06,10.0,ENE,10.4,-,N/A,,Scattered Clouds,60,2011-10-05 20:55:00
5:15 PM,84.2,55.4,37,30.06,10.0,ENE,12.7,-,N/A,,Partly Cloudy,70,2011-10-05 21:15:00
5:35 PM,82.4,55.4,39,30.06,10.0,NE,10.4,-,N/A,,Clear,40,2011-10-05 21:35:00
5:55 PM,82.4,55.4,39,30.06,10.0,ENE,12.7,-,N/A,,Partly Cloudy,60,2011-10-05 21:55:00
6:15 PM,82.4,55.4,39,30.06,10.0,ENE,11.5,-,N/A,,Partly Cloudy,60,2011-10-05 22:15:00
6:35 PM,80.6,55.4,42,30.06,10.0,NE,12.7,-,N/A,,Partly Cloudy,50,2011-10-05 22:35:00
6:55 PM,78.8,57.2,47,30.06,10.0,ENE,5.8,-,N/A,,Partly Cloudy,70,2011-10-05 22:55:00
7:35 PM,75.2,57.2,53,30.06,10.0,Calm,Calm,-,N/A,,Clear,0,2011-10-05 23:35:00
7:55 PM,73.4,57.2,57,30.07,10.0,Calm,Calm,-,N/A,,Clear,0,2011-10-05 23:55:00
8:15 PM,71.6,57.2,60,30.08,10.0,Calm,Calm,-,N/A,,Clear,0,2011-10-06 00:15:00
8:35 PM,71.6,59.0,64,30.08,10.0,Calm,Calm,-,N/A,,Light Drizzle,0,2011-10-06 00:35:00
8:55 PM,69.8,59.0,68,30.09,10.0,Calm,Calm,-,N/A,,Clear,0,2011-10-06 00:55:00
9:15 PM,71.6,60.8,69,30.09,10.0,Calm,Calm,-,N/A,,Clear,0,2011-10-06 01:15:00
9:55 PM,69.8,60.8,73,30.10,10.0,Calm,Calm,-,N/A,Rain,Light Rain,0,2011-10-06 01:55:00
10:15 PM,71.6,60.8,69,30.10,10.0,NNE,6.9,-,N/A,Rain,Light Rain,20,2011-10-06 02:15:00
10:35 PM,71.6,62.6,73,30.11,10.0,NNE,5.8,-,N/A,Rain,Light Rain,30,2011-10-06 02:35:00
11:15 PM,71.6,62.6,73,30.10,10.0,Calm,Calm,-,N/A,Rain,Light Rain,0,2011-10-06 03:15:00
11:35 PM,71.6,64.4,78,30.10,10.0,North,3.5,-,N/A,Rain,Light Rain,10,2011-10-06 03:35:00
11:55 PM,69.8,64.4,83,30.10,10.0,Calm,Calm,-,N/A,,Partly Cloudy,0,2011-10-06 03:55:00